Theta_e
313 316 318 322 315 323 316 319 316 313 311 314 316 317 318 311 312 316 316 317 324 326 326 327 329 330 332 333 334 334 334 334 333 332 331 330 330 330 330 330 330 329 327 325
312 317 314 317 321 314 314 314 315 311 309 311 314 315 316 313 312 313 316 316 316 319 323 324 327 329 329 330 332 333 334 334 333 333 332 332 332 331 331 331 330 329 326 325
314 316 311 309 310 311 313 316 315 315 310 309 311 314 314 313 312 311 310 312 313 315 316 318 321 325 328 330 330 331 332 332 333 333 333 333 332 332 331 331 330 329 327 326
309 307 310 312 312 313 313 310 312 311 313 315 309 317 316 316 313 311 313 313 312 312 312 313 314 317 322 327 329 330 331 331 332 332 333 332 332 332 331 332 331 330 328 328
313 309 310 312 313 311 314 309 311 310 313 312 310 313 315 308 313 314 314 315 314 314 313 313 311 311 312 313 319 326 329 330 330 331 332 332 332 333 332 332 331 331 330 329
308 307 310 312 306 311 305 308 308 308 310 313 313 312 314 312 312 314 315 315 315 314 310 307 306 306 306 306 307 307 314 323 327 329 330 331 331 332 332 331 330 330 329 329
309 308 306 307 308 306 308 312 312 313 313 313 305 308 313 312 311 312 313 312 309 309 307 306 307 306 306 307 306 308 314 317 322 325 327 330 331 331 331 330 329 330 329 329
311 310 307 307 311 309 310 313 313 317 313 312 304 310 312 310 308 307 306 307 308 309 308 308 308 309 309 310 310 309 314 319 320 323 324 326 326 326 327 328 328 327 328 328
312 311 306 305 305 309 309 311 309 308 303 312 310 308 308 310 307 306 305 305 306 309 309 309 310 311 311 312 312 312 313 316 319 321 322 322 323 324 325 326 326 326 325 325
310 310 307 305 306 305 308 308 309 309 317 314 308 308 312 310 308 306 306 306 307 309 309 309 309 309 309 310 311 311 311 312 312 312 312 313 313 313 313 313 314 316 320 322
308 310 308 306 308 309 308 309 307 309 312 318 312 310 307 307 306 306 307 306 307 309 310 309 308 308 307 308 310 310 311 311 312 312 311 312 312 313 313 313 311 311 312 316
309 311 310 308 306 305 309 310 309 312 310 306 309 311 303 305 306 305 305 304 307 309 309 309 308 307 306 307 307 308 308 309 310 310 310 311 313 314 314 314 314 314 315 315
308 311 313 309 308 306 307 306 309 308 309 309 316 311 302 305 306 305 304 303 304 306 307 307 306 306 306 306 305 306 306 307 308 310 308 310 311 312 311 311 312 314 314 315
310 310 313 314 312 309 308 307 308 308 313 310 310 310 306 307 307 305 303 303 304 306 307 307 307 306 305 304 304 304 304 305 306 308 309 308 308 308 308 309 310 311 312 312
309 315 307 306 307 309 309 308 307 308 309 310 310 308 308 308 308 307 306 305 305 306 306 306 306 306 304 303 302 302 302 304 304 305 306 307 307 307 307 307 307 308 308 307
307 314 308 309 306 308 309 308 307 308 309 309 307 308 307 306 306 306 306 306 306 306 305 304 304 303 303 302 302 301 301 302 302 303 304 304 305 304 304 303 303 303 303 303
312 311 315 313 307 311 313 309 308 309 309 309 309 309 306 304 306 307 306 306 306 306 305 304 303 303 302 302 301 301 301 301 301 301 302 302 302 301 300 300 300 300 299 298
309 310 313 309 310 313 312 309 309 309 309 308 308 308 307 307 307 309 306 306 306 304 303 303 302 302 301 301 301 300 300 300 299 299 299 299 299 298 298 297 296 296 295 294
308 311 309 314 313 311 306 304 307 308 308 307 307 307 306 303 303 305 301 303 305 303 303 303 301 299 299 300 299 299 298 298 297 297 297 297 297 297 296 295 293 292 291 291
305 310 315 304 312 312 307 303 304 307 310 308 307 307 305 303 308 309 303 302 302 301 299 298 297 297 296 296 298 298 297 296 296 296 296 296 295 295 294 292 291 290 289 289
308 310 311 308 314 314 304 302 306 310 311 306 306 306 305 306 309 309 301 299 298 297 295 295 295 295 294 295 297 296 295 295 296 296 295 294 293 292 291 289 288 288 287 287
310 312 312 306 311 311 301 301 309 309 301 303 302 303 305 305 301 301 300 297 295 293 293 292 292 292 292 295 296 295 294 295 295 294 293 292 290 289 288 288 287 286 286 286
311 311 312 311 311 303 301 304 302 302 305 303 303 301 303 302 300 298 297 295 294 292 291 292 291 290 290 293 294 294 294 293 293 292 291 290 288 287 286 286 285 284 284 284
305 302 311 310 306 304 302 302 302 302 303 301 301 300 301 301 298 296 295 292 291 289 288 289 289 289 289 292 293 293 293 292 291 290 288 287 285 285 284 283 283 283 283 283
307 304 305 305 302 303 302 303 303 301 298 297 297 298 299 297 295 295 293 291 290 288 288 289 290 290 289 290 290 290 290 289 288 287 285 284 283 283 283 283 283 283 283 283
303 304 308 310 304 306 306 303 299 299 298 298 297 296 295 296 295 293 292 290 289 287 287 288 288 289 289 288 287 288 289 288 287 286 285 284 283 282 282 282 282 282 282 283
Wind_Speed
6 5 15 23 13 12 16 13 11 11 5 8 14 13 13 5 7 11 11 11 12 14 16 16 20 23 22 23 23 23 23 22 21 20 19 17 18 18 18 19 18 18 18 16
6 12 14 18 19 10 13 13 11 3 4 6 6 15 14 9 7 12 13 12 14 13 14 16 19 21 24 25 25 25 26 24 25 22 22 18 18 19 20 18 19 21 21 20
14 8 13 9 11 15 12 17 12 5 5 2 1 13 13 9 12 9 10 10 11 16 17 15 19 24 24 25 26 27 27 26 27 26 22 19 15 15 16 19 19 22 25 24
6 3 17 13 18 17 11 6 8 9 9 8 5 6 15 21 13 9 15 15 16 15 14 12 18 22 26 27 23 25 26 26 27 26 24 25 23 23 22 20 19 21 25 27
10 12 16 18 22 15 5 10 8 3 7 2 5 6 9 2 13 20 20 16 17 17 15 15 18 16 18 19 25 24 23 23 23 24 26 25 25 23 20 19 20 18 22 24
2 3 12 9 3 12 15 12 7 3 1 8 15 10 8 8 17 20 18 20 21 17 10 7 8 11 14 17 21 23 21 20 20 22 24 24 22 22 19 18 17 17 18 21
5 4 4 5 10 7 7 17 5 6 6 7 2 7 12 10 12 14 11 11 9 7 6 6 8 10 10 12 14 12 12 15 15 16 18 20 21 20 21 19 17 17 16 22
14 8 12 6 13 11 16 17 5 7 5 4 2 8 4 12 8 7 7 3 5 4 4 5 6 8 9 10 10 13 15 12 12 12 13 14 15 18 18 18 19 21 20 21
16 9 3 5 5 16 13 12 5 6 1 2 5 4 11 7 7 7 6 8 9 5 5 7 9 11 11 10 10 10 14 14 13 14 15 16 17 18 19 18 14 16 17 16
11 7 5 3 5 2 12 11 6 2 5 5 4 4 7 4 4 1 5 11 9 6 7 7 8 9 9 10 10 10 10 11 13 11 10 11 11 11 13 15 17 19 16 15
15 6 6 6 10 17 7 11 2 5 3 4 2 4 4 3 3 4 4 7 11 11 10 9 9 7 7 7 8 9 10 11 11 10 8 8 7 6 4 4 6 8 12 15
6 7 8 14 4 3 12 14 15 7 5 1 1 3 3 5 7 7 8 6 9 9 9 9 10 10 9 8 8 8 9 9 9 9 8 8 7 6 6 7 6 6 6 6
10 4 7 6 3 3 14 9 18 3 2 7 5 3 2 3 4 6 7 5 7 8 9 7 7 8 9 8 7 8 8 10 10 10 8 8 8 7 7 7 7 7 8 8
6 3 8 14 19 9 10 13 15 12 5 6 14 5 3 3 4 4 5 8 8 9 9 8 7 9 10 10 10 9 8 8 8 9 9 10 9 9 7 7 7 7 7 6
3 5 3 5 4 12 18 19 19 21 18 13 14 13 8 10 9 9 8 10 11 11 10 10 10 11 12 12 11 11 10 10 10 9 8 8 9 9 8 8 7 7 7 7
1 4 4 3 5 4 11 16 20 25 21 22 8 10 4 4 6 8 10 10 10 11 11 9 8 10 11 13 13 13 11 13 12 11 10 10 9 9 9 8 8 8 9 9
14 6 4 4 2 6 1 19 19 18 22 27 19 15 9 7 10 11 13 12 11 10 10 9 9 9 8 9 11 13 15 15 14 13 12 12 11 12 11 10 10 10 10 10
16 7 3 4 1 5 8 15 21 26 25 23 20 9 13 10 15 15 8 14 12 11 11 10 9 8 7 8 9 12 15 15 15 15 14 14 13 13 12 12 12 11 11 12
14 7 5 6 14 4 13 10 15 14 12 13 24 16 11 3 2 8 9 9 16 15 11 12 9 7 7 9 12 13 16 17 16 15 14 14 15 15 14 14 13 13 14 14
1 7 3 6 12 15 6 12 11 8 15 18 19 15 12 8 11 14 15 14 8 12 13 13 12 11 11 13 14 16 17 17 15 14 14 13 14 14 14 14 14 14 15 14
8 9 16 4 8 7 4 11 19 13 13 10 15 15 16 12 19 10 11 8 11 14 14 14 13 10 10 13 17 18 18 16 14 13 13 14 14 14 13 14 15 15 16 16
13 13 9 2 6 16 5 9 18 7 3 5 5 9 17 14 4 5 8 12 13 15 13 12 14 12 12 15 16 15 15 14 14 14 14 15 15 15 16 15 15 17 18 18
8 13 9 13 11 1 8 2 2 2 6 6 6 7 12 11 8 11 12 14 13 16 16 18 18 15 12 13 12 13 13 13 14 15 15 14 15 16 16 18 18 19 19 18
4 2 6 4 6 7 11 3 4 4 3 4 2 5 10 10 10 9 10 9 8 12 15 17 17 15 12 11 11 10 11 13 13 14 15 15 16 16 17 17 18 19 21 19
3 11 7 2 1 3 6 10 9 7 5 5 5 4 10 15 10 12 9 9 10 12 13 15 15 14 12 10 9 8 10 11 12 13 14 14 14 15 15 17 18 20 21 22
5 6 9 7 12 5 9 11 7 8 7 10 12 8 5 10 14 11 8 10 12 13 13 12 10 10 8 7 7 6 7 9 11 12 13 13 13 13 14 14 15 20 22 22
Wind_Direction
149 156 196 199 200 189 175 184 187 199 163 197 221 229 231 188 219 210 203 209 217 225 228 218 212 211 209 211 210 212 212 211 206 208 209 215 218 222 228 229 229 228 229 240
150 212 196 177 196 186 172 173 189 134 140 204 234 243 243 215 230 222 223 206 219 223 222 214 211 210 213 214 211 212 215 212 211 210 212 215 219 226 229 229 228 232 239 239
169 198 161 159 163 167 180 191 185 204 139 164 243 258 236 225 231 230 239 241 232 227 228 216 209 212 216 219 215 214 215 213 214 213 213 217 220 225 225 227 229 229 237 237
237 151 166 177 194 189 179 197 159 141 174 219 198 256 224 226 216 218 234 227 235 231 231 237 214 214 214 218 217 218 220 218 219 212 209 211 213 220 226 229 234 232 238 241
210 182 164 180 193 190 170 145 146 154 214 261 184 244 236 200 224 226 226 228 233 235 227 225 223 229 220 219 220 221 221 222 221 219 215 214 221 230 233 233 232 236 247 246
331 261 180 170 121 180 138 114 82 92 169 249 234 232 224 208 222 233 224 223 229 236 242 229 217 215 220 215 218 225 223 225 224 219 223 222 225 230 233 233 238 238 246 250
233 181 142 150 138 140 171 160 155 196 208 240 117 224 251 239 233 236 244 229 220 212 227 211 203 198 198 206 204 206 212 213 211 217 219 226 232 237 238 238 238 243 240 254
177 193 183 174 194 174 179 183 179 178 193 188 115 232 224 246 277 229 218 169 166 176 179 181 178 172 173 177 179 183 191 186 188 198 211 220 229 232 237 243 247 257 263 266
181 191 174 216 153 160 180 207 136 106 67 229 201 256 270 243 239 225 217 221 217 191 178 166 161 158 155 146 148 158 160 163 174 191 204 214 224 229 235 238 232 245 252 254
167 139 217 165 139 135 194 144 182 196 158 228 211 262 235 266 213 209 223 216 212 186 167 163 160 152 144 146 146 147 149 151 155 168 184 197 210 225 235 242 244 240 236 244
159 132 169 172 211 180 155 190 176 147 167 206 202 234 212 227 262 259 256 212 197 181 175 162 154 151 145 144 144 139 145 152 155 165 166 168 175 181 198 222 226 225 229 233
176 115 156 190 72 297 205 198 192 192 181 186 15 261 149 238 256 242 244 217 183 171 168 158 157 162 160 157 150 147 148 152 159 166 164 165 159 165 176 179 175 185 195 212
170 158 115 146 274 196 211 198 199 139 109 189 172 206 162 214 232 236 236 189 168 163 166 158 157 170 171 166 162 163 166 162 163 168 160 163 161 160 158 156 160 166 182 189
111 127 176 190 219 134 194 194 194 195 209 152 224 216 238 200 205 191 167 170 170 173 168 172 177 181 180 180 180 176 173 174 171 169 173 171 168 166 162 157 153 155 152 162
117 107 95 17 130 167 183 181 179 198 208 205 221 211 208 199 192 189 176 171 171 175 175 182 180 187 185 188 186 182 183 183 182 181 178 179 179 174 172 170 164 165 160 160
7 126 117 35 45 117 175 183 186 207 208 236 237 239 195 179 160 187 189 182 181 181 187 186 187 189 189 192 193 190 189 190 187 184 184 183 177 174 175 172 171 170 162 158
182 133 130 126 53 90 70 204 198 210 208 220 221 216 177 190 199 206 200 194 193 187 189 190 198 198 193 198 204 197 191 189 189 190 187 190 185 177 173 170 166 164 166 160
163 137 76 108 66 176 228 194 209 213 216 218 233 179 184 197 207 210 192 188 194 191 195 197 190 200 205 208 215 201 190 188 188 189 187 187 188 184 178 175 175 175 172 172
177 136 129 157 197 270 230 213 195 190 232 213 226 213 197 165 94 234 190 192 197 195 184 172 173 184 197 205 209 185 180 183 186 185 187 194 192 189 188 187 185 184 181 180
12 182 120 156 192 220 285 178 151 112 257 206 211 199 182 154 218 231 194 199 172 141 152 161 171 173 174 177 171 170 176 181 186 188 188 193 195 195 193 189 185 186 184 183
164 176 206 196 205 269 226 155 144 165 260 184 184 187 179 194 216 215 126 132 142 149 153 155 155 164 174 163 158 166 173 186 185 185 191 195 196 195 196 194 192 188 187 185
170 166 197 164 208 249 149 141 176 181 157 154 151 177 195 207 87 129 139 136 139 136 140 150 150 155 156 156 157 167 178 180 179 185 192 196 197 196 198 198 197 195 194 191
193 198 172 196 204 202 192 109 132 193 148 191 172 179 186 174 176 157 152 145 147 150 152 159 159 153 153 142 159 169 179 180 178 184 193 201 203 202 202 200 199 195 198 198
229 154 190 132 194 176 188 216 197 178 180 134 116 134 155 152 148 138 142 133 132 147 154 159 155 147 135 144 154 169 181 183 182 190 197 203 206 204 203 204 206 205 204 205
174 147 157 188 39 118 213 221 191 151 121 110 89 120 146 131 142 142 138 134 137 151 154 158 150 138 139 148 158 172 176 182 186 198 205 208 211 212 214 215 217 219 225 224
193 158 186 213 173 162 199 190 144 149 158 145 134 121 101 141 142 137 124 121 140 149 152 144 133 131 139 153 162 164 175 191 201 208 215 220 222 223 224 229 237 237 238 240